[Iaude] MPEC D14: 2024 CT7 [a=1.54,e=0.38,i=5.8,H=26.6]

mpec at cfa.harvard.edu mpec at cfa.harvard.edu
Fri Feb 16 16:17:56 EST 2024


M.P.E.C. 2024-D14                             Issued 2024 February 16, 21:16 UT

     The Minor Planet Electronic Circulars contain information on unusual
         minor planets, routine data on comets and natural satellites,
         and occasional editorial announcements.  They are published
    on behalf of Division F of the International Astronomical Union by the
          Minor Planet Center, Smithsonian Astrophysical Observatory,
                          Cambridge, MA 02138, U.S.A.
			  
             Prepared using the Tamkin Foundation Computer Network

                              MPC at CFA.HARVARD.EDU
            URL https://www.minorplanetcenter.net/    ISSN 1523-6714

                                    2024 CT7                                    


Observations:
     K24C07T  C2024 02 06.38214308 28 49.432+00 44 25.64         22.68GVED014F52
     K24C07T  C2024 02 06.39460808 28 49.594+00 44 35.81         22.53GVED014F52
     K24C07T  C2024 02 06.40709108 28 49.743+00 44 45.47         22.34GVED014F52
     K24C07T* C2024 02 14.33619708 40 34.120+04 01 19.42         21.80wXED014F51
     K24C07T  C2024 02 14.34937308 40 35.473+04 01 52.64         21.60wXED014F51
     K24C07T  C2024 02 14.37578708 40 38.129+04 02 58.82         21.81wXED014F51
     K24C07T  C2024 02 14.51730708 40 53.107+04 08 54.80         21.25GVED014F51
     K24C07T  C2024 02 14.51794908 40 53.175+04 08 56.36         21.28GVED014F51
     K24C07T  C2024 02 15.11929808 42 45.477+04 35 18.06         21.2 GVED014H01
     K24C07T  C2024 02 15.12427308 42 46.187+04 35 32.27         21.4 GVED014H01
     K24C07T  C2024 02 15.13599908 42 47.822+04 36 05.92         21.0 GVED014H01
     K24C07T  C2024 02 15.13986608 42 48.377+04 36 16.82         20.9 GVED014H01
     K24C07T KC2024 02 15.15704408 42 50.55 +04 37 03.7          20.9 GXED014858
     K24C07T KC2024 02 15.17262108 42 52.65 +04 37 48.3          21.0 GXED014858
     K24C07T  C2024 02 15.33116908 43 20.618+04 45 56.76         21.35GVED014F51
     K24C07T  C2024 02 15.33199108 43 20.730+04 45 59.21         21.48GVED014F51

Observer details:
858 Tebbutt Observatory, Edgewood.  Observer F. B. Zoltowski.  0.51-m f/8.1
    Schmidt-Cassegrain + CCD.
F51 Pan-STARRS 1, Haleakala.  Observers J. Herman, T. Lowe, P. Minguez, A.
    Schultz, I. Smith.  Measurers K. Chambers, T. de Boer, J. Fairlamb, H.
    Gao, M. Huber, C.-C. Lin, E. Magnier, Y. Ramanjooloo, R. Wainscoat, R.
    Weryk.  1.8-m Ritchey-Chretien + CCD.
F52 Pan-STARRS 2, Haleakala.  Observers J. Herman, T. Lowe, P. Minguez, A.
    Schultz, I. Smith.  Measurers K. Chambers, T. de Boer, J. Fairlamb, H.
    Gao, M. Huber, C.-C. Lin, E. Magnier, Y. Ramanjooloo, R. Wainscoat, R.
    Weryk.  1.8-m Ritchey-Chretien + CCD.
H01 Magdalena Ridge Observatory, Socorro.  Observers W. H. Ryan, E. V. Ryan.
    Measurer W. H. Ryan.  2.4-m f/8.9 Ritchey-Chretien + CCD.

Orbital elements:
2024 CT7                                                 Earth MOID = 0.0155 AU
Epoch 2024 Mar. 31.0 TT = JDT 2460400.5                 MPC                     
M   3.11938              (2000.0)            P               Q                  
n   0.51427281     Peri.   37.77372     -0.98396160     +0.17184973             
a   1.5429091      Node   152.00937     -0.17814293     -0.93284620             
e   0.3771377      Incl.    5.84867     -0.00920134     -0.31664749             
P   1.92           H   26.60          G   0.15           U   8                  
Residuals in seconds of arc
240206 F52  0.1+  0.0     240214 F51  0.2+  0.0     240215 858  0.1-  0.1+
240206 F52  0.0   0.2+    240214 F51  0.1+  0.0     240215 858  0.0   0.2+
240206 F52  0.1-  0.2-    240215 H01  0.0   0.1-    240215 F51  0.0   0.0
240214 F51  0.0   0.0     240215 H01  0.1+  0.1-    240215 F51  0.1+  0.0
240214 F51  0.0   0.1+    240215 H01  0.2-  0.1+
240214 F51  0.2-  0.0     240215 H01  0.1+  0.0

Ephemeris:
2024 CT7                 a,e,i = 1.54, 0.38, 6                   q = 0.9610
Date    TT    R. A. (2000) Decl.     Delta      r    Elong.  Phase     V
2024 01 17    08 22 39.2 +00 09 55   0.2133  1.1841   157.9    18.2    24.6
...
2024 02 01    08 25 47.7 -00 03 13   0.1282  1.1074   161.1    16.7    23.3
...
2024 02 09    08 31 16.9 +01 27 25   0.08854 1.0704   160.7    17.8    22.4
...
2024 02 15    08 42 18.4 +04 30 58   0.06081 1.0453   161.1    17.9    21.5
2024 02 16    08 45 25.4 +05 20 45   0.05636 1.0413   161.4    17.6    21.4
2024 02 17    08 49 08.8 +06 19 18   0.05196 1.0374   161.8    17.3    21.2
...
2024 02 23    09 40 09.7 +18 26 40   0.02732 1.0158   167.0    12.7    19.6
...
2024 03 02    17 05 53.1 +37 15 57   0.02072 0.9919    91.6    87.2    21.2
...
2024 03 17    19 28 45.9 +13 41 13   0.08043 0.9648    65.8   109.9    25.2

A. U. Tomatic                (C) Copyright 2024 MPC           M.P.E.C. 2024-D14





More information about the Iaude mailing list